[[{"header":{"parameterUnit":"m.s-1","parameterCategory":1,"la1":30.2991,"la2":30.254,"lo1":-89.0895,"lo2":-89.0444,"dy":0.0017,"dx":0.0017,"nx":28,"ny":28,"refTime":"2024-07-09T21:00:00:Z","depth":0,"parameterNumber":2,"parameterNumberName":"U-component_of_WINDS"},"data":[0,0,0,0,0,0,0,0,0,0,0,0,0,0,0,0,0,0,0,0,0,0,0,0,0,0,0,0,0,0,0,0,0,0,0,0,0,0,0,0,0,0,0,0,0,0,0,0,0,0,0,0,0,0,0,0,0,0,5.0957,5.0959,0,5.1122,5.1124,5.1126,5.1071,5.1067,5.1064,5.106,5.1231,5.1239,5.1247,0,0,0,0,0,0,0,0,0,0,0,0,0,5.0593,5.06,5.0957,5.0959,5.0961,5.1122,5.1124,5.1126,5.1072,5.1067,5.1063,5.1059,5.1229,5.1238,5.1247,0,0,0,0,0,0,0,0,0,0,0,0,0,5.0754,5.0602,5.0957,5.0953,5.0954,5.1121,5.1124,5.1127,5.1072,5.1067,5.1062,5.1057,5.1226,5.1237,5.1249,5.143,0,0,5.1285,5.129,0,0,0,0,0,0,0,0,5.0745,5.0767,5.0951,5.0954,5.0955,5.107,5.1058,5.1229,5.1074,5.1028,5.106,5.1054,5.1182,5.1197,5.124,5.1438,5.1445,5.1286,5.1293,5.1298,5.1302,0,0,0,0,0,0,0,5.0734,5.076,5.1022,5.0954,5.0957,5.0943,5.096,5.109,5.1133,5.1031,5.1028,5.1048,5.1182,5.1229,5.1244,5.1448,5.1286,5.1296,5.1304,5.1308,5.1797,5.1802,0,0,0,0,0,0,5.0721,5.0751,5.1017,5.1027,5.0835,5.0954,5.0973,5.1039,5.1132,5.1141,5.1052,5.1045,5.1211,5.123,5.125,5.1463,5.1298,5.1309,5.1316,5.1791,5.1798,5.1804,0,0,0,0,0,0,5.0714,5.0746,5.101,5.0888,5.0921,5.0966,5.1041,5.1045,5.1091,5.1147,5.1155,5.1092,5.1208,5.1233,5.1384,5.1469,5.1315,5.1325,5.1784,5.1793,5.1801,5.1895,0,0,0,0,0,0,5.0704,5.0743,5.0813,5.089,5.0927,5.1143,5.1046,5.1052,5.1112,5.1103,5.1187,5.1195,5.1205,5.1367,5.1396,5.1482,5.1335,5.1776,5.1788,5.1798,5.1885,5.1906,5.1925,0,0,0,0,0,5.0691,5.0835,5.0817,5.0849,5.1016,5.1148,5.1169,5.1177,5.1119,5.1189,5.1224,5.1193,5.1455,5.1383,5.1415,5.1506,5.1771,5.1785,5.1797,5.1876,5.1902,5.1924,0,0,0,0,0,0,5.0768,5.0845,5.0826,5.0999,5.1067,5.1138,5.1227,5.1206,5.1292,5.1281,5.1288,5.1307,5.1461,5.1499,5.1417,5.1684,5.1604,5.1625,5.1653,5.1678,5.1698,5.1684,5.1345,0,0,0,0,0,5.0805,5.0906,5.0968,5.1115,5.1149,5.1182,5.124,5.124,5.1311,5.134,5.1387,5.1457,5.1554,5.1619,5.1713,5.1891,5.1906,5.1969,5.1989,5.2005,5.2022,5.2114,5.2142,5.1848,5.1847,5.1847,0,0,5.0883,5.0937,5.1001,5.1131,5.1184,5.1287,5.1207,5.1321,5.1397,5.1358,5.1501,5.1538,5.1617,5.1781,5.1856,5.1817,5.2106,5.2022,5.2034,5.2042,5.2131,5.2158,5.2183,5.1857,5.1855,5.1853,0,0,5.1077,5.113,5.1255,5.1309,5.1389,5.1409,5.1439,5.1513,5.1535,5.168,5.1651,5.1741,5.1911,5.1967,5.2017,5.2228,5.2201,5.2258,5.2362,5.2452,5.2475,5.2495,5.2566,5.2592,5.2275,5.2276,5.2276,0,5.1163,5.1318,5.1323,5.1437,5.1494,5.1462,5.1587,5.164,5.1747,5.1786,5.1742,5.195,5.2001,5.2175,5.2226,5.227,5.2302,5.2248,5.2471,5.2492,5.2511,5.2578,5.2606,5.2282,5.2281,5.228,5.228,0,5.1418,5.1525,5.1617,5.1718,5.1786,5.1906,5.1928,5.1995,5.1989,5.2013,5.2159,5.2218,5.2321,5.2363,5.236,5.2536,5.2509,5.2468,5.2388,5.2545,5.2608,5.2635,5.2291,5.2288,5.2287,5.2285,0,0,5.1666,5.1766,5.1799,5.1843,5.1927,5.201,5.2127,5.2226,5.2282,5.2356,5.2453,5.2595,5.2556,5.2613,5.2615,5.2695,5.2852,5.2643,5.2645,5.2676,5.3045,5.3073,5.3103,5.2835,5.284,5.2844,5.3037,0,5.1864,5.2069,5.2075,5.2262,5.2359,5.2328,5.2429,5.2491,5.2517,5.2602,5.263,5.2729,5.2673,5.2706,5.2784,5.2816,5.2926,5.2803,5.2923,5.2927,5.2901,5.3137,5.3168,5.3347,5.3063,5.3067,5.307,0,5.2122,5.2201,5.2397,5.2463,5.2504,5.2595,5.2684,5.2767,5.2835,5.2848,5.291,5.2899,5.3016,5.2934,5.3094,5.3011,5.306,5.3083,5.3091,5.31,5.3006,5.3149,5.3405,5.3431,5.311,5.3107,5.3104,0,5.2278,5.2435,5.257,5.2609,5.2691,5.2755,5.2792,5.2855,5.2912,5.299,5.3027,5.3118,5.3168,5.3238,5.3251,5.319,5.3411,5.333,5.3422,5.3422,5.3468,5.3465,5.3732,5.3506,5.3506,5.3505,5.3505,0,5.2496,5.2617,5.2641,5.2724,5.2857,5.2862,5.2993,5.3025,5.3081,5.3169,5.3149,5.3232,5.3246,5.3331,5.3343,5.3471,5.3495,5.3507,5.3508,5.3507,5.3505,5.3537,5.3524,5.3512,5.3511,5.3509,5.3508,0,5.2693,5.2714,5.286,5.2923,5.2942,5.3037,5.3091,5.317,5.3192,5.3303,5.3329,5.3365,5.3464,5.3484,5.3603,5.361,5.3762,5.3753,5.3738,5.3736,5.3825,5.3815,5.412,5.4159,5.3911,5.3913,5.3915,0,5.2829,5.292,5.2993,5.3049,5.3088,5.3181,5.3238,5.3247,5.3307,5.3389,5.3458,5.3554,5.3632,5.3792,5.3827,5.3917,5.3907,5.4008,5.392,5.3915,5.3904,5.3897,5.3904,5.4024,5.4026,5.4029,5.403,0,5.3067,5.3072,5.3156,5.3242,5.331,5.3379,5.3445,5.3492,5.3509,5.3578,5.3678,5.3738,5.3857,5.3952,5.404,5.4077,5.4056,5.4058,5.4083,5.4081,5.4067,5.4072,5.378,5.405,5.4048,5.4047,5.4046,5.4045,5.3235,5.3313,5.3374,5.3467,5.3516,5.3576,5.3652,5.3682,5.3766,5.3861,5.3862,5.397,5.4033,5.4149,5.4191,5.4275,5.4244,5.4282,5.429,5.4299,5.4305,5.4056,5.4292,5.4292,5.4291,5.4291,5.429,0,5.3469,5.3506,5.3591,5.3681,5.3753,5.3726,5.3795,5.3857,5.3952,5.4012,5.4087,5.42,5.4291,5.4333,5.4423,5.4481,5.4474,5.4504,5.4498,5.4506,5.433,5.4297,5.4509,5.4509,5.4509,5.4509,5.4509,5.4509,5.3599,5.3727,5.3738,5.3889,5.3926,5.4031,5.4072,5.4127,5.4174,5.43,5.4375,5.4401,5.4452,5.4545,5.4626,5.4636,5.4668,5.4703,5.4708,5.4542,5.452,5.4498,5.4467,5.4711,5.4711,5.4876,5.4878,5.4879]},{"header":{"parameterUnit":"m.s-1","parameterCategory":1,"la1":30.2991,"la2":30.254,"lo1":-89.0895,"lo2":-89.0444,"dy":0.0017,"dx":0.0017,"nx":28,"ny":28,"refTime":"2024-07-09T21:00:00:Z","depth":0,"parameterNumber":3,"parameterNumberName":"V-component_of_WINDS"},"data":[0,0,0,0,0,0,0,0,0,0,0,0,0,0,0,0,0,0,0,0,0,0,0,0,0,0,0,0,0,0,0,0,0,0,0,0,0,0,0,0,0,0,0,0,0,0,0,0,0,0,0,0,0,0,0,0,0,0,1.0022,1.0022,0,1.0025,1.0025,1.0025,1.0002,1.0002,1.0001,1.0,1.0004,1.0005,1.0006,0,0,0,0,0,0,0,0,0,0,0,0,0,0.9996,0.9997,1.0022,1.0022,1.0022,1.0025,1.0025,1.0025,1.0002,1.0002,1.0001,1.0,1.0004,1.0005,1.0006,0,0,0,0,0,0,0,0,0,0,0,0,0,1.0004,0.9997,1.0022,1.0011,1.001,1.0025,1.0025,1.0025,1.0003,1.0002,1.0001,1.0,1.0004,1.0005,1.0006,1.0031,0,0,1.0009,1.0009,0,0,0,0,0,0,0,0,1.0004,1.0005,1.0012,1.0012,1.0011,1.0012,1.0017,1.0027,1.0003,1.0005,1.0,0.9999,1.0008,1.0008,1.0011,1.0032,1.0032,1.0009,1.001,1.001,1.0011,0,0,0,0,0,0,0,1.0003,1.0005,1.0023,1.0013,1.0011,1.0006,1.0006,1.0019,1.0012,1.0005,1.0003,1.0004,1.0007,1.001,1.0011,1.0032,1.0009,1.001,1.0011,1.0011,1.0072,1.0073,0,0,0,0,0,0,1.0004,1.0004,1.0023,1.0023,1.0005,1.0007,1.0007,1.0013,1.0012,1.0011,1.0005,1.0003,1.0009,1.001,1.0011,1.004,1.001,1.0011,1.0012,1.0071,1.0072,1.0073,0,0,0,0,0,0,1.0003,1.0006,1.0023,1.0013,1.0015,1.0008,1.0015,1.0013,1.0016,1.0011,1.001,1.0009,1.0008,1.001,1.0026,1.004,1.0012,1.0013,1.007,1.0072,1.0073,1.0099,0,0,0,0,0,0,1.0003,1.0006,1.0016,1.0014,1.0016,1.0038,1.0016,1.0014,1.0018,1.0016,1.0015,1.0014,1.0007,1.0025,1.0027,1.0041,1.0013,1.0069,1.0071,1.0072,1.0097,1.0102,1.0105,0,0,0,0,0,1.0002,1.0023,1.0016,1.0019,1.0028,1.0039,1.004,1.0031,1.0019,1.0029,1.0026,1.0014,1.0038,1.0027,1.0029,1.0044,1.0068,1.007,1.0072,1.0095,1.0101,1.0105,0,0,0,0,0,0,1.0028,1.0023,1.0015,1.0036,1.0038,1.0035,1.0047,1.0037,1.0043,1.004,1.003,1.003,1.0048,1.0047,1.0035,1.0068,1.0051,1.0054,1.0068,1.0073,1.0077,1.0076,1.0014,0,0,0,0,0,1.0036,1.0045,1.004,1.006,1.0061,1.0054,1.0058,1.0051,1.0053,1.0054,1.0052,1.0054,1.0061,1.0067,1.0074,1.0097,1.0096,1.0108,1.0112,1.0115,1.0118,1.0129,1.0134,1.0081,1.0081,1.0081,0,0,1.0053,1.0051,1.0058,1.0065,1.0065,1.0075,1.0055,1.0066,1.0073,1.0056,1.0071,1.0069,1.0071,1.009,1.0099,1.0091,1.0132,1.0118,1.0121,1.0122,1.0132,1.0137,1.0142,1.0082,1.0082,1.0082,0,0,1.0089,1.0089,1.0104,1.0105,1.0106,1.0101,1.0104,1.0102,1.0101,1.0116,1.0102,1.011,1.0124,1.0125,1.0128,1.0163,1.0152,1.0165,1.0187,1.0198,1.0202,1.0206,1.0218,1.0222,1.0168,1.0168,1.0168,0,1.011,1.0124,1.0114,1.0126,1.0129,1.0112,1.0128,1.0129,1.0132,1.0135,1.0125,1.0141,1.0141,1.016,1.0169,1.0171,1.0175,1.0166,1.0202,1.0206,1.0209,1.022,1.0225,1.017,1.0169,1.0169,1.0169,0,1.015,1.016,1.0172,1.0175,1.0179,1.0193,1.0185,1.019,1.0183,1.0178,1.0193,1.0192,1.0199,1.0202,1.0195,1.0221,1.0215,1.0204,1.0187,1.0216,1.0226,1.0231,1.0172,1.0171,1.0171,1.017,0,0,1.0204,1.0199,1.0204,1.0204,1.0203,1.0211,1.0223,1.0229,1.0234,1.0236,1.0246,1.0257,1.0247,1.0249,1.0242,1.0252,1.0279,1.0239,1.0239,1.0247,1.0306,1.0314,1.032,1.0272,1.0273,1.0273,1.0306,0,1.0238,1.0259,1.025,1.0272,1.028,1.0264,1.0275,1.0275,1.0272,1.0278,1.0274,1.0282,1.0267,1.0269,1.0278,1.0274,1.0291,1.0271,1.0281,1.0282,1.0281,1.0325,1.0334,1.0365,1.031,1.031,1.0311,0,1.0282,1.0285,1.0308,1.0304,1.0308,1.0318,1.0321,1.0328,1.0328,1.0324,1.0326,1.0317,1.0328,1.0311,1.0327,1.0314,1.0317,1.0316,1.0317,1.0317,1.0298,1.0327,1.0375,1.038,1.0317,1.0317,1.0316,0,1.0318,1.0328,1.0343,1.0344,1.034,1.0347,1.0346,1.0345,1.0348,1.0352,1.0354,1.0358,1.0361,1.0364,1.0356,1.0344,1.0373,1.0355,1.037,1.037,1.0377,1.0377,1.0426,1.0379,1.0379,1.0379,1.0379,0,1.0358,1.0373,1.0359,1.0368,1.0384,1.0372,1.0388,1.0385,1.0384,1.0392,1.0378,1.0386,1.0374,1.0381,1.0374,1.0388,1.0389,1.0387,1.0385,1.0388,1.0388,1.039,1.0388,1.038,1.038,1.038,1.038,0,1.0402,1.0393,1.0408,1.0402,1.0401,1.0413,1.0408,1.0416,1.0411,1.0421,1.0423,1.0415,1.0422,1.0414,1.042,1.0416,1.0434,1.0429,1.0434,1.0433,1.0448,1.0447,1.0501,1.0507,1.0456,1.0457,1.0457,0,1.0428,1.0438,1.0433,1.0438,1.0437,1.0444,1.0447,1.0436,1.044,1.0439,1.0447,1.0453,1.0457,1.0469,1.0464,1.0468,1.0463,1.0482,1.0464,1.0466,1.0463,1.0463,1.0463,1.0485,1.0486,1.0487,1.0487,0,1.0475,1.0469,1.0474,1.0477,1.0481,1.0483,1.0485,1.0489,1.0477,1.0482,1.0488,1.0491,1.0497,1.0503,1.0506,1.0505,1.0494,1.0492,1.0496,1.05,1.0502,1.0501,1.0444,1.0491,1.0491,1.0491,1.049,1.049,1.051,1.0518,1.0516,1.0521,1.0521,1.0522,1.0529,1.0524,1.0529,1.0533,1.0526,1.0534,1.0533,1.0535,1.0535,1.0541,1.0533,1.0539,1.054,1.0542,1.0544,1.0501,1.0542,1.0542,1.0542,1.0541,1.0541,0,1.0556,1.0553,1.0558,1.056,1.0564,1.0552,1.0553,1.0557,1.0565,1.0564,1.0568,1.0575,1.058,1.0575,1.0579,1.0585,1.058,1.0586,1.0586,1.0586,1.0551,1.0547,1.059,1.059,1.059,1.059,1.059,1.059,1.058,1.0593,1.0588,1.06,1.0598,1.0605,1.0606,1.0607,1.0606,1.0615,1.0619,1.0615,1.0612,1.0616,1.062,1.0618,1.0621,1.0629,1.0625,1.0593,1.0588,1.0584,1.058,1.0629,1.0629,1.0659,1.066,1.066]}]]